Preview of NWS' New Version of Forecast
This preview is not operational and should not be used for support decisions.

Regional Weather Roundup (RWR)

Issued by National Weather Service (NWS)

                            
000
ASUS44 KMEG 210110
RWRTN 
TENNESSEE HOURLY STATE WEATHER ROUNDUP
NATIONAL WEATHER SERVICE MEMPHIS TN
800 PM CDT WED MAR 20 2019

TNZ002-004-019-021-049-052-054-088>092-210200-
WEST TENNESSEE
  
CITY           SKY/WX    TMP DP  RH WIND       PRES   REMARKS
MEMPHIS INTL   RAIN      46  44  93 NW16      30.15R                  
NWS MEMPHIS      N/A     48 N/A N/A MISG        N/A                   
JACKSON        LGT RAIN  48  46  93 NW5       30.12R                  
DYERSBURG      LGT RAIN  48  46  93 W9        30.12S                  
SOMERVILLE     CLOUDY    48  46  93 NW7       30.10R                  
COVINGTON      CLOUDY    48  46  93 NW14      30.11F                  
UNION CITY     MOCLDY    46  46 100 SW6       30.09S FOG              
BOLIVAR        CLOUDY    48  45  87 NW6       30.09S                  
PARIS          CLOUDY    46  45  93 W8        30.09R                  
HUNTINGDON     CLOUDY    48  46  93 W5        30.10R                  
LEXINGTON      CLOUDY    52  41  66 W7        30.08R                  
SAVANNAH       CLOUDY    57  37  47 NW10      30.07R                  
$$

TNZ008-025-027-028-033-062-065-066-210200-
NORTH MIDDLE TENNESSEE
  
CITY           SKY/WX    TMP DP  RH WIND       PRES   REMARKS
NASHVILLE      CLOUDY    60  26  27 SW3       30.02S                  
DICKSON        CLOUDY    55  28  35 W8G16     30.04R                  
CLARKSVILLE    CLOUDY    52  33  48 W9        30.06R                  
SMYRNA         FAIR      58  31  35 S5        30.03F                  
MURFREESBORO   MOCLDY    59  28  31 S5        30.01F                  
COOKEVILLE     CLEAR     41  32  70 CALM      30.03F                  
LIVINGSTON     CLEAR     54  23  30 SW5       30.03S                  
GALLATIN       PTCLDY    57  30  35 NW6       30.05R                  
CROSSVILLE     FAIR      51  23  33 W5        30.05S                  
ROCKWOOD       CLEAR     50  21  32 SW5       30.04S                  
$$

TNZ061-075-076-078-094-096-097-210200-
SOUTH MIDDLE TENNESSEE
  
CITY           SKY/WX    TMP DP  RH WIND       PRES   REMARKS
LAWRENCEBURG   CLOUDY    55  34  44 CALM      30.03S                  
LEWISBURG      PTCLDY    52  34  50 S3        30.03S                  
FAYETTEVILLE   CLEAR     55  30  38 CALM      30.04S                  
TULLAHOMA      PTCLDY    55  27  33 S5        30.04S                  
WINCHESTER     PTCLDY    52  28  40 SE6       30.05S                  
MCMINNVILLE    CLEAR     52  28  40 CALM      30.04F                  
COLUMBIA       CLOUDY    59  30  33 SW5       30.01S                  
SHELBYVILLE    CLEAR     54  32  43 S5        30.03F                  
$$

TNZ017-018-042-046-047-210200-
NORTHEAST TENNESSEE
  
CITY           SKY/WX    TMP DP  RH WIND       PRES   REMARKS
TRI CITIES     MOCLDY    47  25  42 CALM      30.05S                  
ELIZABETHTON   MOCLDY    43  32  65 CALM      30.05S                  
GREENEVILLE    CLEAR     50  28  43 CALM      30.05S                  
$$

TNZ012-013-036-069-073-074-210200-
CENTRAL EAST TENNESSEE
  
CITY           SKY/WX    TMP DP  RH WIND       PRES   REMARKS
KNOXVILLE      FAIR      56  22  26 SW3       30.05R                  
OAK RIDGE      FAIR      53  24  32 CALM      30.06S                  
DOWNTOWN KNOXV CLOUDY    48  37  66 CALM      30.06R                  
GATLINBURG     PTCLDY    50  27  40 CALM      30.05S                  
MORRISTOWN     PTCLDY    52  25  35 CALM      30.04S                  
JACKSBORO      CLEAR     48  27  43 CALM      30.07S                  
$$

TNZ083-085-099-210200-
SOUTHEAST TENNESSEE
  
CITY           SKY/WX    TMP DP  RH WIND       PRES   REMARKS
CHATTANOOGA    MOCLDY    57  28  33 S3        30.06S                  
DAYTON         CLEAR     52  30  43 CALM      30.05R                  
$$

SKY/WX REPORTED AS FAIR MEANS FEW OR NO CLOUDS BELOW
12 THOUSAND FEET.